Powrót do katalogu

ALPHASAT

I-4A F4

AktywnyŁącznośćGEO
NORAD 39215·PAYLOAD·🇮🇲 IM

Wystrzelony Jul 25, 2013 z Guiana Space Centre

Loading…

TLE

ŚwieżeSource: Space-Track

Epoka: Sep 14, 2026, 13:55 UTC

1 39215U 13038A   26257.58004103  .00000128  00000-0  00000-0 0  9999
2 39215   3.0033   0.7198 0003618 186.9695  39.5551  1.00273628 44913

Śledź ALPHASAT w czasie rzeczywistym z AllMySat

Download on the App Store